TimeCST,TemperatureF,Dew PointF,Humidity,Sea Level PressureIn,VisibilityMPH,Wind Direction,Wind SpeedMPH,Gust SpeedMPH,PrecipitationIn,Events,Conditions,WindDirDegrees,DateUTC
1:18 AM,30.2,28.4,93,29.98,7.0,East,11.5,-,N/A,,Overcast,90,2013-03-05 07:18:00
1:53 AM,30.9,28.9,92,29.99,7.0,East,11.5,-,N/A,,Overcast,90,2013-03-05 07:53:00
2:53 AM,30.9,28.9,92,29.96,6.0,East,10.4,-,N/A,,Overcast,80,2013-03-05 08:53:00
3:53 AM,30.9,28.9,92,29.94,7.0,East,12.7,-,N/A,,Overcast,80,2013-03-05 09:53:00
4:03 AM,30.2,28.4,93,29.92,7.0,East,13.8,-,N/A,,Overcast,80,2013-03-05 10:03:00
4:17 AM,30.2,28.4,93,29.91,8.0,East,15.0,-,N/A,,Overcast,90,2013-03-05 10:17:00
4:53 AM,30.9,28.0,89,29.93,9.0,East,15.0,-,N/A,,Overcast,90,2013-03-05 10:53:00
6:59 AM,30.2,28.4,93,29.89,1.2,East,15.0,-,0.00,Snow,Light Snow,90,2013-03-05 12:59:00
7:12 AM,30.2,28.4,93,29.88,2.0,East,13.8,-,0.00,Snow,Light Snow,80,2013-03-05 13:12:00
7:22 AM,30.2,28.4,93,29.88,5.0,East,13.8,-,0.00,,Overcast,90,2013-03-05 13:22:00
7:53 AM,32.0,28.0,85,29.91,8.0,East,15.0,-,0.00,,Overcast,90,2013-03-05 13:53:00
8:53 AM,33.1,26.1,75,29.89,10.0,East,15.0,-,0.00,,Overcast,90,2013-03-05 14:53:00
9:16 AM,32.0,26.6,80,29.87,1.8,East,15.0,23.0,0.00,Snow,Light Snow,90,2013-03-05 15:16:00
9:46 AM,32.0,28.4,87,29.86,2.5,East,12.7,-,0.00,Snow,Light Snow,100,2013-03-05 15:46:00
9:53 AM,32.0,28.0,85,29.89,3.0,East,12.7,-,0.00,Snow,Light Snow,100,2013-03-05 15:53:00
10:02 AM,32.0,28.4,87,29.86,2.5,East,15.0,-,0.00,Snow,Light Snow,90,2013-03-05 16:02:00
10:13 AM,32.0,28.4,87,29.85,1.5,East,13.8,-,0.01,Snow,Light Snow,90,2013-03-05 16:13:00
10:44 AM,30.2,28.4,93,29.82,1.2,East,15.0,-,0.01,Snow,Light Snow,80,2013-03-05 16:44:00
10:53 AM,30.9,28.9,92,29.85,1.2,East,12.7,-,0.01,Snow,Light Snow,80,2013-03-05 16:53:00
11:07 AM,32.0,28.4,87,29.81,1.0,East,12.7,-,0.00,Snow,Light Snow,80,2013-03-05 17:07:00
11:20 AM,30.2,28.4,93,29.81,1.2,East,15.0,-,0.00,Snow,Light Snow,80,2013-03-05 17:20:00
11:34 AM,30.2,28.4,93,29.81,1.0,East,13.8,-,0.00,Snow,Light Snow,90,2013-03-05 17:34:00
11:39 AM,30.2,28.4,93,29.82,0.8,East,10.4,-,0.00,Snow,Light Snow,90,2013-03-05 17:39:00
11:53 AM,30.9,28.9,92,29.84,0.5,East,11.5,-,0.00,Fog-Snow,Snow,90,2013-03-05 17:53:00
12:15 PM,30.2,28.4,93,29.80,1.0,East,12.7,-,0.00,Snow,Light Snow,80,2013-03-05 18:15:00
12:27 PM,30.2,28.4,93,29.80,1.2,East,13.8,-,0.00,Snow,Light Snow,80,2013-03-05 18:27:00
12:45 PM,30.2,28.4,93,29.79,0.5,ENE,11.5,-,0.00,Fog-Snow,Snow,70,2013-03-05 18:45:00
12:53 PM,30.9,28.9,92,29.81,0.5,East,12.7,-,0.00,Fog-Snow,Snow,80,2013-03-05 18:53:00
1:09 PM,30.2,28.4,93,29.78,0.2,East,11.5,-,0.00,Fog-Snow,Snow,80,2013-03-05 19:09:00
1:24 PM,30.2,30.2,100,29.77,0.5,ENE,13.8,-,0.00,Fog-Snow,Snow,60,2013-03-05 19:24:00
1:53 PM,30.9,28.9,92,29.78,0.2,ENE,15.0,-,0.00,Fog-Snow,Snow,60,2013-03-05 19:53:00
2:24 PM,30.2,28.4,93,29.75,0.5,ENE,15.0,-,0.00,Fog-Snow,Snow,60,2013-03-05 20:24:00
2:34 PM,30.2,28.4,93,29.75,0.2,ENE,11.5,-,0.00,Fog-Snow,Snow,60,2013-03-05 20:34:00
2:53 PM,30.0,28.9,96,29.78,0.2,ENE,11.5,-,0.00,Fog-Snow,Snow,60,2013-03-05 20:53:00
3:04 PM,30.2,28.4,93,29.75,0.2,NE,11.5,-,0.00,Fog-Snow,Heavy Snow,50,2013-03-05 21:04:00
3:53 PM,30.0,28.0,92,29.80,0.2,NE,6.9,-,0.04,Fog-Snow,Snow,40,2013-03-05 21:53:00
4:07 PM,30.2,28.4,93,29.77,0.2,NE,4.6,-,0.03,Fog-Snow,Heavy Snow,40,2013-03-05 22:07:00
4:53 PM,28.9,27.0,92,29.81,0.2,NNE,5.8,-,0.10,Fog-Snow,Snow,20,2013-03-05 22:53:00
5:51 PM,28.4,26.6,93,29.80,0.5,North,5.8,-,0.07,Fog-Snow,Snow,10,2013-03-05 23:51:00
5:53 PM,28.0,27.0,96,29.82,0.5,North,5.8,-,0.07,Fog-Snow,Snow,10,2013-03-05 23:53:00
6:53 PM,28.0,27.0,96,29.83,0.5,North,5.8,-,0.07,Fog-Snow,Snow,360,2013-03-06 00:53:00
7:53 PM,30.0,28.0,92,29.85,0.8,North,8.1,-,0.06,Snow,Light Snow,350,2013-03-06 01:53:00
8:32 PM,30.2,26.6,86,29.83,1.0,North,10.4,20.7,0.01,Snow,Light Snow,10,2013-03-06 02:32:00
8:41 PM,30.2,28.4,93,29.83,1.0,North,12.7,18.4,0.02,Snow,Light Snow,10,2013-03-06 02:41:00
8:53 PM,30.0,28.0,92,29.86,0.8,North,12.7,20.7,0.02,Snow,Light Snow,360,2013-03-06 02:53:00
9:02 PM,30.2,26.6,86,29.84,1.0,North,10.4,20.7,0.00,Snow,Light Snow,10,2013-03-06 03:02:00
9:53 PM,30.0,27.0,88,29.89,1.0,North,13.8,24.2,0.01,Snow,Light Snow,10,2013-03-06 03:53:00
10:09 PM,30.2,26.6,86,29.87,1.5,North,12.7,20.7,0.00,Snow,Light Snow,10,2013-03-06 04:09:00
10:28 PM,28.4,26.6,93,29.88,1.5,North,13.8,21.9,0.00,Snow,Light Snow,10,2013-03-06 04:28:00
10:37 PM,28.4,26.6,93,29.88,1.8,North,15.0,21.9,0.00,Snow,Light Snow,10,2013-03-06 04:37:00
10:44 PM,28.4,26.6,93,29.88,2.0,North,12.7,23.0,0.00,Snow,Light Snow,10,2013-03-06 04:44:00
10:53 PM,28.9,26.1,89,29.91,2.5,North,12.7,18.4,0.00,Snow,Light Snow,360,2013-03-06 04:53:00
11:00 PM,28.4,26.6,93,29.89,4.0,North,13.8,20.7,0.00,Snow,Light Snow,10,2013-03-06 05:00:00
11:28 PM,28.4,24.8,86,29.90,7.0,North,11.5,23.0,0.00,Snow,Light Snow,10,2013-03-06 05:28:00
11:53 PM,28.9,26.1,89,29.93,5.0,North,12.7,-,0.00,Snow,Light Snow,360,2013-03-06 05:53:00